1372550430264,129.774
1372550490264,129.713
1372550550264,130.064
1372550610264,130.157
1372550670264,129.953
1372550730264,129.956
1372550790264,130.021
1372550850264,129.794
1372550910264,129.843
1372550970264,130.070
1372551030264,129.496
1372551090264,129.662
1372551150264,130.231
1372551210264,130.094
1372551270264,130.231
1372551330264,130.020
1372551390264,129.979
1372551450264,130.205
1372551510264,130.284
1372551570264,130.008
1372551630264,129.988
1372551690264,129.829
1372551750264,130.106
1372551810264,130.352
1372551870264,130.003
1372551930264,130.180
1372551990264,129.919
1372552050264,129.903
1372552110264,130.197
1372552170264,129.799
1372552230264,129.894
1372552290264,129.859
1372552350264,130.243
1372552410264,129.833
1372552470264,130.224
1372552530264,130.262
1372552590264,130.094
1372552650264,129.824
1372552710264,130.042
1372552770264,130.061
1372552830264,130.022
1372552890264,130.068
1372552950264,130.000
1372553010264,129.961
1372553070264,129.522
1372553130264,130.074
1372553190264,129.751
1372553250264,129.856
1372553310264,129.850
1372553370264,129.561
1372553430264,129.782
1372553490264,129.733
1372553550264,129.981
1372553610264,130.017
1372553670264,129.857
1372553730264,129.656
1372553790264,129.789
1372553850264,129.720
1372553910264,129.769
1372553970264,129.579
1372554030274,129.588
1372554090274,129.496
1372554150274,129.403
1372554210274,129.507
1372554270274,129.664
1372554330274,129.395
1372554390274,129.648
1372554450274,129.472
1372554510274,129.563
1372554570274,129.382
1372554630274,129.345
1372554690274,129.268
1372554750274,129.817
1372554810274,129.718
1372554870274,129.705
1372554930274,129.420
1372554990274,129.739
1372555050274,129.692
1372555110274,129.697
1372555170274,129.508
1372555230274,129.420
1372555290274,129.536
1372555350274,129.794
1372555410274,129.815
1372555470274,129.550
1372555530274,129.471
1372555590274,129.668
1372555650274,129.437
1372555710274,129.601
1372555770274,129.412
1372555830274,129.497
1372555890274,129.423
1372555950274,129.515
1372556010274,129.589
1372556070274,129.562
1372556130274,129.363
1372556190274,129.691
1372556250274,129.440
1372556310274,129.608
1372556370274,129.582
1372556430274,129.607
1372556490274,129.491
1372556550274,129.658
1372556610274,129.286
1372556670274,129.438
1372556730274,129.719
1372556790274,129.321
1372556850274,129.744
1372556910274,129.639
1372556970274,129.651
1372557030274,129.817
1372557090274,129.627
1372557150274,129.694
1372557210274,129.983
1372557270274,129.550
1372557330274,129.786
1372557390274,129.653
1372557450274,129.602
1372557510274,129.635
1372557570274,129.568
1372557630284,129.896
1372557690284,129.821
1372557750284,129.786
1372557810284,129.817
1372557870284,129.822
1372557930284,129.883
1372557990284,129.697
1372558050284,129.807
1372558110284,129.768
1372558170284,129.789
1372558230284,129.875
1372558290284,130.002
1372558350284,129.753
1372558410284,129.756
1372558470284,129.965
1372558530284,129.686
1372558590284,130.026
1372558650284,129.884
1372558710284,129.676
1372558770284,129.716
1372558830284,129.570
1372558890284,129.294
1372558950284,129.771
1372559010284,129.460
1372559070284,129.394
1372559130284,129.646
1372559190284,129.764
1372559250284,129.830
1372559310284,129.972
1372559370284,129.817
1372559430284,129.624
1372559490284,129.839
1372559550284,129.523
1372559610284,129.492
1372559670284,130.138
1372559730284,129.570
1372559790284,129.805
1372559850284,129.566
1372559910284,129.511
1372559970284,129.794
1372560030284,129.569
1372560090284,129.684
1372560150284,129.548
1372560210284,129.552
1372560270284,129.669
1372560330284,129.805
1372560390284,129.678
1372560450284,129.492
1372560510284,129.774
1372560570284,129.633
1372560630284,129.654
1372560690284,129.615
1372560750284,129.690
1372560810284,129.992
1372560870284,129.816
1372560930284,129.672
1372560990284,129.622
1372561050284,129.717
1372561110284,129.807
1372561170284,129.627
1372561230293,129.406
1372561290293,129.561
1372561350293,129.597
1372561410293,129.554
1372561470293,129.619
1372561530293,129.672
1372561590293,129.555
1372561650293,129.670
1372561710293,129.605
1372561770293,129.547
1372561830293,129.478
1372561890293,129.840
1372561950293,129.597
1372562010293,129.424
1372562070293,129.643
1372562130293,129.344
1372562190293,129.184
1372562250293,129.284
1372562310293,129.250
1372562370293,129.290
1372562430293,129.295
1372562490293,129.345
1372562550293,129.485
1372562610293,129.412
1372562670293,129.369
1372562730293,129.345
1372562790293,129.269
1372562850293,129.205
1372562910293,129.329
1372562970293,129.180
1372563030293,129.102
1372563090293,129.289
1372563150293,129.466
1372563210293,129.136
1372563270293,129.158
1372563330293,129.371
1372563390293,129.205
1372563450293,129.336
1372563510293,129.273
1372563570293,129.315
1372563630293,128.919
1372563690293,129.308
1372563750293,129.249
1372563810293,129.283
1372563870293,129.367
1372563930293,129.493
1372563990293,129.330
1372564050293,129.189
1372564110293,129.445
1372564170293,129.537
1372564230293,129.153
1372564290293,129.056
1372564350293,129.270
1372564410293,129.134
1372564470293,129.002
1372564530293,129.484
1372564590293,128.827
1372564650293,129.263
1372564710293,129.162
1372564770293,129.187
1372564830303,129.253
1372564890303,129.319
1372564950303,129.213
1372565010303,129.220
1372565070303,129.347
1372565130303,129.253
1372565190303,129.474
1372565250303,128.989
1372565310303,129.008
1372565370303,129.274
1372565430303,129.520
1372565490303,129.503
1372565550303,129.536
1372565610303,129.473
1372565670303,129.539
1372565730303,129.585
1372565790303,129.603
1372565850303,129.667
1372565910303,129.788
1372565970303,129.498
1372566030303,129.740
1372566090303,129.802
1372566150303,129.599
1372566210303,129.658
1372566270303,129.504
1372566330303,129.669
1372566390303,129.669
1372566450303,129.974
1372566510303,129.615
1372566570303,129.605
1372566630303,129.664
1372566690303,129.744
1372566750303,129.578
1372566810303,129.580
1372566870303,129.471
1372566930303,129.864
1372566990303,129.704
1372567050303,129.649
1372567110303,129.649
1372567170303,129.826
1372567230303,129.826
1372567290303,129.752
1372567350303,129.328
1372567410303,129.742
1372567470303,129.695
1372567530303,129.997
1372567590303,129.956
1372567650303,129.828
1372567710303,129.842
1372567770303,129.954
1372567830303,129.642
1372567890303,129.854
1372567950303,129.596
1372568010303,129.925
1372568070303,129.644
1372568130303,129.525
1372568190303,129.693
1372568250303,129.544
1372568310303,129.810
1372568370303,129.944
1372568430312,130.157
1372568490312,129.848
1372568550312,130.042
1372568610312,129.944
1372568670312,129.916
1372568730312,129.649
1372568790312,129.947
1372568850312,129.943
1372568910312,129.750
1372568970312,129.904
1372569030312,129.551
1372569090312,129.405
1372569150312,129.697
1372569210312,129.643
1372569270312,129.596
1372569330312,129.763
1372569390312,129.863
1372569450312,130.012
1372569510312,129.829
1372569570312,129.930
1372569630312,129.986
1372569690312,129.718
1372569750312,129.713
1372569810312,129.462
1372569870312,129.909
1372569930312,129.671
1372569990312,129.883
1372570050312,129.871
1372570110312,129.775
1372570170312,129.864
1372570230312,129.770
1372570290312,129.742
1372570350312,130.007
1372570410312,129.589
1372570470312,129.700
1372570530312,129.691
1372570590312,129.572
1372570650312,129.409
1372570710312,129.481
1372570770312,129.504
1372570830312,129.660
1372570890312,129.629
1372570950312,129.695
1372571010312,130.040
1372571070312,129.563
1372571130312,129.881
1372571190312,130.895
1372571250312,129.579
1372571310312,129.931
1372571370312,130.134
1372571430312,129.549
1372571490312,129.324
1372571550312,129.546
1372571610312,130.053
1372571670312,129.692
1372571730312,129.733
1372571790312,130.004
1372571850312,129.634
1372571910312,129.562
1372571970312,129.571
1372572030321,129.709
1372572090321,129.784
1372572150321,129.937
1372572210321,129.748
1372572270321,129.880
1372572330321,129.816
1372572390321,129.921
1372572450321,129.581
1372572510321,129.604
1372572570321,129.624
1372572630321,130.007
1372572690321,129.971
1372572750321,129.958
1372572810321,129.974
1372572870321,129.775
1372572930321,130.045
1372572990321,129.795
1372573050321,130.244
1372573110321,129.994
1372573170321,130.152
1372573230321,129.933
1372573290321,129.880
1372573350321,129.898
1372573410321,130.306
1372573470321,130.072
1372573530321,129.986
1372573590321,129.877
1372573650321,130.160
1372573710321,130.057
1372573770321,129.983
1372573830321,129.951
1372573890321,130.108
1372573950321,129.770
1372574010321,130.054
1372574070321,129.970
1372574130321,129.912
1372574190321,129.974
1372574250321,130.051
1372574310321,130.048
1372574370321,130.302
1372574430321,129.966
1372574490321,130.340
1372574550321,130.072
1372574610321,130.023
1372574670321,129.930
1372574730321,130.042
1372574790321,130.018
1372574850321,129.999
1372574910321,129.958
1372574970321,130.016
1372575030321,130.188
1372575090321,130.060
1372575150321,130.263
1372575210321,129.943
1372575270321,130.140
1372575330321,129.987
1372575390321,130.080
1372575450321,130.441
1372575510321,130.516
1372575570321,130.302
1372575630330,130.178
1372575690330,130.518
1372575750330,130.566
1372575810330,130.239
1372575870330,130.414
1372575930330,130.303
1372575990330,130.150
1372576050330,130.271
1372576110330,130.624
1372576170330,130.433
1372576230330,130.449
1372576290330,130.380
1372576350330,130.498
1372576410330,130.562
1372576470330,130.397
1372576530330,130.321
1372576590330,130.496
1372576650330,130.329
1372576710330,130.431
1372576770330,130.630
1372576830330,130.561
1372576890330,130.267
1372576950330,130.669
1372577010330,130.582
1372577070330,130.430
1372577130330,130.802
1372577190330,130.395
1372577250330,130.730
1372577310330,130.827
1372577370330,130.771
1372577430330,130.689
1372577490330,130.702
1372577550330,130.595
1372577610330,130.990
1372577670330,130.501
1372577730330,130.522
1372577790330,130.399
1372577850330,130.778
1372577910330,130.963
1372577970330,130.736
1372578030330,130.839
1372578090330,130.815
1372578150330,130.932
1372578210330,130.780
1372578270330,131.062
1372578330330,131.019
1372578390330,131.049
1372578450330,131.055
1372578510330,131.207
1372578570330,130.722
1372578630330,131.120
1372578690330,131.363
1372578750330,131.375
1372578810330,131.352
1372578870330,131.571
1372578930330,131.209
1372578990330,131.273
1372579050330,131.199
1372579110330,131.327
1372579170330,131.108
1372579230339,131.090
1372579290339,131.063
1372579350339,131.345
1372579410339,131.314
1372579470339,131.176
1372579530339,131.003
1372579590339,131.445
1372579650339,131.365
1372579710339,131.087
1372579770339,131.218
1372579830339,131.311
1372579890339,131.338
1372579950339,131.192
1372580010339,131.378
1372580070339,131.329
1372580130339,131.274
1372580190339,130.955
1372580250339,131.318
1372580310339,131.442
1372580370339,131.503
1372580430339,131.258
1372580490339,131.519
1372580550339,131.368
1372580610339,131.469
1372580670339,131.367
1372580730339,131.381
1372580790339,131.227
1372580850339,131.583
1372580910339,131.415
1372580970339,131.514
1372581030339,131.721
1372581090339,131.735
1372581150339,131.349
1372581210339,131.574
1372581270339,131.494
1372581330339,131.741
1372581390339,131.922
1372581450339,131.534
1372581510339,131.280
1372581570339,131.709
1372581630339,131.866
1372581690339,131.805
1372581750339,131.334
1372581810339,131.567
1372581870339,131.912
1372581930339,131.859
1372581990339,131.386
1372582050339,131.321
1372582110339,131.589
1372582170339,131.894
1372582230339,131.369
1372582290339,131.646
1372582350339,131.745
1372582410339,131.550
1372582470339,131.414
1372582530339,131.671
1372582590339,131.569
1372582650339,131.258
1372582710339,131.319
1372582770339,131.600
1372582830348,131.452
1372582890348,131.834
1372582950348,131.358
1372583010348,131.492
1372583070348,131.463
1372583130348,131.546
1372583190348,131.813
1372583250348,131.352
1372583310348,131.653
1372583370348,131.313
1372583430348,131.653
1372583490348,131.480
1372583550348,131.513
1372583610348,131.479
1372583670348,131.924
1372583730348,132.069
1372583790348,132.059
1372583850348,132.034
1372583910348,131.789
1372583970348,131.490
1372584030348,131.840
1372584090348,131.895
1372584150348,132.149
1372584210348,131.911
1372584270348,131.719
1372584330348,131.827
1372584390348,131.803
1372584450348,131.519
1372584510348,131.839
1372584570348,131.183
1372584630348,131.543
1372584690348,131.386
1372584750348,131.605
1372584810348,131.631
1372584870348,131.754
1372584930348,131.307
1372584990348,131.186
1372585050348,131.303
1372585110348,131.453
1372585170348,131.455
1372585230348,131.682
1372585290348,131.568
1372585350348,131.395
1372585410348,131.406
1372585470348,131.423
1372585530348,131.539
1372585590348,131.349
1372585650348,131.246
1372585710348,131.321
1372585770348,131.398
1372585830348,131.374
1372585890348,131.558
1372585950348,131.317
1372586010348,131.289
1372586070348,131.435
1372586130348,131.282
1372586190348,131.527
1372586250348,131.442
1372586310348,131.529
1372586370348,131.696
1372586430357,131.322
1372586490357,131.663
1372586550357,131.202
1372586610357,131.910
1372586670357,131.292
1372586730357,131.455
1372586790357,131.386
1372586850357,131.673
1372586910357,131.809
1372586970357,131.514
1372587030357,131.383
1372587090357,131.438
1372587150357,131.825
1372587210357,131.398
1372587270357,131.629
1372587330357,131.597
1372587390357,131.629
1372587450357,131.649
1372587510357,131.657
1372587570357,131.737
1372587630357,131.499
1372587690357,131.785
1372587750357,131.940
1372587810357,131.675
1372587870357,132.078
1372587930357,131.842
1372587990357,132.189
1372588050357,131.604
1372588110357,131.674
1372588170357,132.049
1372588230357,131.958
1372588290357,131.841
1372588350357,132.278
1372588410357,132.081
1372588470357,132.232
1372588530357,131.838
1372588590357,132.025
1372588650357,131.751
1372588710357,132.273
1372588770357,131.914
1372588830357,132.214
1372588890357,132.067
1372588950357,131.916
1372589010357,132.147
1372589070357,132.162
1372589130357,132.127
1372589190357,131.865
1372589250357,132.181
1372589310357,132.463
1372589370357,132.313
1372589430357,132.221
1372589490357,132.602
1372589550357,132.346
1372589610357,132.367
1372589670357,132.352
1372589730357,131.885
1372589790357,132.471
1372589850357,132.227
1372589910357,132.408
1372589970357,132.193
1372590030366,132.421
1372590090366,132.585
1372590150366,132.562
1372590210366,132.336
1372590270366,132.316
1372590330366,132.255
1372590390366,132.563
1372590450366,132.327
1372590510366,132.674
1372590570366,132.832
1372590630366,132.730
1372590690366,132.725
1372590750366,132.649
1372590810366,132.612
1372590870366,132.630
1372590930366,132.629
1372590990366,132.890
1372591050366,132.479
1372591110366,132.686
1372591170366,133.001
1372591230366,133.118
1372591290366,132.851
1372591350366,133.043
1372591410366,132.916
1372591470366,132.862
1372591530366,132.974
1372591590366,133.088
1372591650366,133.378
1372591710366,133.013
1372591770366,133.206
1372591830366,133.152
1372591890366,133.392
1372591950366,133.186
1372592010366,133.295
1372592070366,133.092
1372592130366,133.252
1372592190366,133.369
1372592250366,133.301
1372592310366,133.219
1372592370366,133.638
1372592430366,133.416
1372592490366,133.338
1372592550366,133.586
1372592610366,133.526
1372592670366,133.333
1372592730366,133.360
1372592790366,133.666
1372592850366,133.538
1372592910366,133.561
1372592970366,133.267
1372593030366,133.616
1372593090366,133.218
1372593150366,133.313
1372593210366,133.663
1372593270366,133.469
1372593330366,133.356
1372593390366,133.335
1372593450366,133.289
1372593510366,133.353
1372593570366,133.211
1372593630375,133.300
1372593690375,133.276
1372593750375,133.445
1372593810375,133.621
1372593870375,133.584
1372593930375,133.831
1372593990375,133.974
1372594050375,133.662
1372594110375,134.057
1372594170375,133.501
1372594230375,133.949
1372594290375,133.649
1372594350375,134.054
1372594410375,133.700
1372594470375,133.743
1372594530375,133.581
1372594590375,133.689
1372594650375,133.856
1372594710375,133.967
1372594770375,133.590
1372594830375,133.787
1372594890375,133.941
1372594950375,133.833
1372595010375,133.577
1372595070375,133.116
1372595130375,133.357
1372595190375,133.599
1372595250375,133.422
1372595310375,133.221
1372595370375,133.374
1372595430375,133.407
1372595490375,133.230
1372595550375,133.349
1372595610375,133.391
1372595670375,133.288
1372595730375,133.547
1372595790375,133.373
1372595850375,133.400
1372595910375,133.181
1372595970375,133.177
1372596030375,133.519
1372596090375,133.291
1372596150375,133.522
1372596210375,133.548
1372596270375,133.234
1372596330375,133.400
1372596390375,133.260
1372596450375,133.547
1372596510375,133.346
1372596570375,133.339
1372596630375,133.416
1372596690375,133.178
1372596750375,133.369
1372596810375,133.133
1372596870375,133.411
1372596930375,133.383
1372596990375,133.342
1372597050375,133.450
1372597110375,133.508
1372597170375,133.353
1372597230384,133.488
1372597290384,133.140
1372597350384,133.075
1372597410384,133.252
1372597470384,133.183
1372597530384,133.315
1372597590384,133.017
1372597650384,133.150
1372597710384,133.202
1372597770384,132.936
1372597830384,133.229
1372597890384,132.903
1372597950384,133.077
1372598010384,133.124
1372598070384,133.070
1372598130384,133.098
1372598190384,133.222
1372598250384,133.034
1372598310384,133.116
1372598370384,133.054
1372598430384,132.903
1372598490384,132.914
1372598550384,132.875
1372598610384,132.920
1372599750384,133.262
1372599810384,133.153
1372599870384,133.384
1372599930384,133.366
1372599990384,133.502
1372600050384,133.015
1372600110384,132.995
1372600170384,132.813
1372600230384,133.021
1372600290384,133.494
1372600350384,132.778
1372600410384,133.052
1372600470384,133.182
1372600530384,133.382
1372600590384,133.287
1372600650384,132.746
1372600710384,133.070
1372600770384,133.191
1372600830393,133.048
1372600890393,132.845
1372600950393,133.016
1372601010393,133.154
1372601070393,133.231
1372601130393,133.190
1372601190393,132.909
1372601250393,133.073
1372601310393,132.670
1372601370393,132.939
1372601430393,133.283
1372601490393,133.355
1372601550393,133.047
1372601610393,133.203
1372601670393,132.972
1372601730393,133.062
1372601790393,133.018
1372601850393,133.246
1372601910393,133.230
1372601970393,133.083
1372602030393,133.257
1372602090393,132.743
1372602150393,133.137
1372602210393,133.068
1372602270393,132.863
1372602330393,133.111
1372602390393,133.017
1372602450393,133.214
1372602510393,133.022
1372602570393,133.586
1372602630393,133.188
1372602690393,133.194
1372602750393,132.841
1372602810393,133.293
1372602870393,133.071
1372602930393,132.768
1372602990393,133.180
1372603050393,132.870
1372603110393,133.086
1372603170393,133.043
1372603230393,133.228
1372603290393,133.480
1372603350393,133.315
1372603410393,133.379
1372603470393,133.373
1372603530393,132.920
1372603590393,133.236
1372603650393,132.825
1372603710393,132.750
1372603770393,132.991
1372603830393,132.968
1372603890393,132.916
1372603950393,133.249
1372604010393,133.270
1372604070393,132.948
1372604130393,133.355
1372604190393,132.990
1372604250393,132.859
1372604310393,132.964
1372604370393,133.125
1372604430402,132.935
1372604490402,132.698
1372604550402,132.853
1372604610402,132.881
1372604670402,133.027
1372604730402,132.984
1372604790402,132.924
1372604850402,132.726
1372604910402,132.636
1372604970402,132.858
1372605030402,132.775
1372605090402,132.765
1372605150402,132.656
1372605210402,132.692
1372605270402,133.062
1372605330402,132.771
1372605390402,133.102
1372605450402,132.953
1372605510402,133.434
1372605570402,132.890
1372605630402,132.842
1372605690402,132.879
1372605750402,132.507
1372605810402,132.906
1372605870402,132.730
1372605930402,132.770
1372605990402,132.717
1372606050402,132.666
1372606110402,132.720
1372606170402,132.909
1372606230402,132.577
1372606290402,132.797
1372606350402,132.302
1372606410402,132.594
1372606470402,132.361
1372606530402,132.606
1372606590402,132.584
1372606650402,132.896
1372606710402,132.375
1372606770402,132.349
1372606830402,132.699
1372606890402,132.545
1372606950402,132.487
1372607010402,132.830
1372607070402,132.671
1372607130402,132.680
1372607190402,132.844
1372607250402,132.605
1372607310402,132.728
1372607370402,132.415
1372607430402,132.344
1372607490402,132.615
1372607550402,132.583
1372607610402,132.568
1372607670402,132.417
1372607730402,132.353
1372607790402,132.390
1372607850402,132.250
1372607910402,132.425
1372607970402,132.330
1372608030412,132.295
1372608090412,132.377
1372608150412,132.186
1372608210412,132.244
1372608270412,132.509
1372608330412,132.247
1372608390412,132.879
1372608450412,132.507
1372608510412,132.448
1372608570412,132.623
1372608630412,132.571
1372608690412,132.592
1372608750412,132.546
1372608810412,132.421
1372608870412,132.308
1372608930412,132.710
1372608990412,132.578
1372609050412,132.697
1372609110412,132.759
1372609170412,132.793
1372609230412,132.631
1372609290412,132.766
1372609350412,132.978
1372609410412,133.227
1372609470412,132.901
1372609530412,133.062
1372609590412,133.090
1372609650412,133.097
1372609710412,133.243
1372609770412,133.251
1372609830412,133.260
1372609890412,133.335
1372609950412,133.332
1372610010412,132.884
1372610070412,133.075
1372610130412,133.203
1372610190412,133.403
1372610250412,133.229
1372610310412,133.031
1372610370412,132.917
1372610430412,133.004
1372610490412,133.176
1372610550412,133.187
1372610610412,132.862
1372610670412,133.415
1372610730412,133.186
1372610790412,133.187
1372610850412,133.091
1372610910412,133.270
1372610970412,133.427
1372611030412,133.170
1372611090412,133.226
1372611150412,133.290
1372611210412,133.066
1372611270412,133.132
1372611330412,133.011
1372611390412,132.977
1372611450412,133.140
1372611510412,133.036
1372611570412,132.619
1372611630422,132.862
1372611690422,132.894
1372611750422,132.650
1372611810422,132.665
1372611870422,132.867
1372611930422,132.831
1372611990422,132.416
1372612050422,132.757
1372612110422,133.034
1372612170422,132.980
1372612230422,133.060
1372612290422,132.854
1372612350422,132.983
1372612410422,133.348
1372612470422,133.101
1372612530422,132.969
1372612590422,132.912
1372612650422,133.278
1372612710422,133.336
1372612770422,132.926
1372612830422,133.267
1372612890422,132.935
1372612950422,133.118
1372613010422,133.110
1372613070422,133.534
1372613130422,133.336
1372613190422,133.276
1372613250422,133.002
1372613310422,133.010
1372613370422,133.008
1372613430422,133.371
1372613490422,133.333
1372613550422,133.335
1372613610422,133.353
1372613670422,133.332
1372613730422,133.513
1372613790422,133.707
1372613850422,133.407
1372613910422,133.621
1372613970422,133.644
1372614030422,133.698
1372614090422,133.624
1372614150422,133.830
1372614210422,133.540
1372614270422,133.599
1372614330422,133.542
1372614390422,133.664
1372614450422,133.315
1372614510422,133.373
1372614570422,133.319
1372614630422,133.475
1372614690422,133.723
1372614750422,133.827
1372614810422,133.544
1372614870422,133.483
1372614930422,133.590
1372614990422,133.213
1372615050422,133.531
1372615110422,133.601
1372615170422,133.405
1372615230432,133.442
1372615290432,133.673
1372615350432,133.419
1372615410432,133.470
1372615470432,133.044
1372615530432,133.427
1372615590432,133.548
1372615650432,133.512
1372615710432,133.680
1372615770432,133.149
1372615830432,133.585
1372615890432,133.388
1372615950432,133.559
1372616010432,133.276
1372616070432,133.501
1372616130432,133.454
1372616190432,133.522
1372616250432,133.438
1372616310432,133.675
1372616370432,133.197
1372616430432,133.748
1372616490432,133.609
1372616550432,133.562
1372616610432,133.116
1372616670432,133.055
1372616730432,133.528
1372616790432,133.305
1372616850432,133.407